Sign-in with your pilot id or email, or register

ICAO: WBSB Name / Country: Brunei / Brunei
Latitude: 4.9442 Longitude: 114.928
Total Arrivals:
Strict Standards: Non-static method AirportData::getarrflights() should not be called statically, assuming $this from incompatible context in /var/www/customers/vh-7192/web/home/phpvms/core/templates/airport_info.tpl on line 18
1
Total Departures:
Strict Standards: Non-static method AirportData::getdeptflights() should not be called statically, assuming $this from incompatible context in /var/www/customers/vh-7192/web/home/phpvms/core/templates/airport_info.tpl on line 21
1
Latest Arrival: MTA5TT (RPLL-WBSB) Tibor Berces Latest Departure: MTA5TT (WBSB-WMKK) Tibor Berces
Metar: WBSB 170330Z 18002KT 9000 -RA FEW003 OVC150 25/24 Q1012 NOSIG
More info

Charts for WBSB


NOTAM


Warning: file_get_contents(http://api.vateud.net/notams/WBSB.json): failed to open stream: HTTP request failed! HTTP/1.1 404 Not Found in /var/www/customers/vh-7192/web/home/phpvms/core/common/NOTAMSData.class.php on line 18

Warning: Invalid argument supplied for foreach() in /var/www/customers/vh-7192/web/home/phpvms/core/common/NOTAMSData.class.php on line 22

Brunei